Location: Campillo
(40.8621°N, 4.2488°W)
Time: 13:17:53
(UTC+00:00)

Cosmos 1340 Rocket - Pass Details

Date: 11 May 2021
Orbit: 528 x 559 km, 81.2° (Epoch: 13 June)

Event Time Altitude Azimuth Distance (km) Brightness Sun altitude
Rises 22:26:36 0° 354° (N) 2,754 7.5 -26.0°
Reaches altitude 10° 22:28:49 10° 358° (N) 1,853 6.3 -26.2°
Enters shadow 22:31:41 41° 19° (NNE) 817 3.9 -26.5°
